sat.trackr.live / text

‹ back to catalog

GRUS-3E

NORAD 69898 · 2026-156AF

PAYLOAD ACTIVE UNKNOWN

§ Identity

Operator
Country
JPN
Launch date
2026-07-07
Launch site
AFWTR
Launch vehicle
Mass (kg)
RCS (m²)

External: N2YO · Heavens-Above · Gunter

§ Orbital elements

Epoch: 2026-09-18T11:13:22.209024Z

Period
96.54 min
Inclination
97.7463°
Eccentricity
0.0003942
Mean motion
14.91557881 rev/d
Perigee alt
590.3 km
Apogee alt
595.8 km
Semi-major
6,971.2 km
B*
8.7579e-5
RAAN
160.6775°
Arg perigee
262.3249°
Mean anomaly
97.7522°
Rev number
1,090

§ Raw data

GRUS-3E1 69898U 26156AF  26261.46761816  .00000822  00000+0  87579-4 0  99972 69898  97.7463 160.6775 0003942 262.3249  97.7522 14.91557881 10907

JSON: /api/v1/satellites/69898 · /tle

For live sub-satellite position, see the globe view (requires WebGL).

§ Visibility from observer

Set your observer location to see the next 7 days of passes ≥ 10°. The values pass through the URL so the page stays shareable.

No JS? Fill the form by hand. The geolocation button needs JavaScript.